SCP
2 1 1 0 0 0 0 0 0 0 0 0 0 0 0 0 0 0 0 0 0 0 0 0 0 0 0 1 1 1 1 1 1 1 0 0 0 0 0 0 0 0 0
3 1 1 0 0 0 0 0 0 0 0 0 0 0 0 0 0 0 0 0 0 0 0 0 0 0 0 1 1 1 1 1 1 1 1 0 0 0 0 0 0 0 0
5 3 2 2 1 1 1 1 0 0 0 0 0 0 0 0 0 0 0 0 0 0 1 0 0 0 -0 0 0 1 1 1 1 1 1 0 0 0 0 0 0 0 0
5 4 3 2 3 4 2 1 0 0 0 0 1 1 1 1 1 1 1 0 0 0 1 1 0 0 -0 -1 -1 -0 0 1 1 1 1 0 0 0 0 0 0 0 0
4 5 3 2 3 2 2 1 1 1 1 1 0 1 1 1 1 1 1 1 1 1 2 1 1 0 0 -0 -1 -0 0 1 1 1 1 1 1 0 0 0 0 0 0
4 5 4 4 4 4 2 1 2 1 1 1 0 0 2 1 1 1 1 1 1 2 2 2 1 1 0 0 0 -0 -0 1 1 1 1 1 1 0 0 0 0 0 0
4 4 4 5 7 5 3 3 4 4 2 2 2 1 1 3 2 1 1 1 2 2 4 3 1 1 1 0 0 0 0 1 1 1 1 1 1 1 0 0 0 0 0
6 6 5 7 6 7 7 4 5 5 4 5 4 2 1 1 4 3 1 2 3 2 3 3 2 3 2 1 1 1 1 1 1 2 2 1 0 1 0 0 0 0 0
9 7 5 7 7 7 5 13 10 8 4 5 5 4 4 3 5 4 4 3 4 3 2 2 4 3 1 1 1 1 1 0 1 1 1 1 1 1 0 0 0 0 0
7 6 5 4 3 5 4 7 9 5 4 3 4 5 7 8 6 3 4 6 6 6 7 3 3 1 -0 1 1 0 0 1 1 1 2 1 1 1 1 0 0 0 0
7 6 5 5 4 9 7 7 7 7 5 4 8 7 8 4 6 4 3 3 5 4 2 1 0 0 1 0 0 0 0 0 1 1 0 1 1 1 1 0 0 0 0
10 8 5 7 8 7 9 6 9 7 6 5 8 8 4 4 2 2 2 1 1 1 1 0 0 0 0 1 1 1 1 0 0 0 0 0 0 1 1 0 0 0 0
16 10 7 7 9 9 10 13 11 9 8 8 9 5 3 3 3 2 2 1 1 1 1 0 0 0 0 1 1 1 0 0 0 0 0 0 0 0 0 0 0 0 0
15 9 10 8 9 10 15 19 8 9 8 7 6 5 3 2 2 2 2 1 0 0 0 0 0 0 1 2 1 0 0 0 0 0 0 0 0 0 0 0 0 0 0
9 11 13 10 7 11 8 8 5 8 6 5 5 4 3 3 2 1 1 1 1 1 0 0 0 1 1 1 1 0 1 0 0 0 0 0 0 0 0 0 0 0 0
4 7 14 8 4 0 0 -0 1 3 4 4 4 5 5 3 4 2 2 1 3 1 1 1 0 1 2 1 1 1 1 1 0 0 0 0 0 0 0 0 0 0 0
3 5 2 5 3 0 -0 -0 0 2 2 4 4 4 4 4 5 2 2 2 3 2 1 1 1 1 3 1 1 1 1 0 0 0 0 0 0 0 0 0 0 0 0
3 1 2 -0 2 1 2 2 2 2 3 3 4 5 4 3 3 2 3 2 1 2 2 1 1 1 2 1 2 1 1 0 1 0 0 0 0 0 0 0 0 0 0
3 2 1 1 1 2 3 3 2 2 3 3 3 4 3 2 3 2 2 1 1 1 1 2 1 1 1 1 2 1 1 1 0 0 0 0 0 0 0 0 0 0 0
2 2 2 1 1 2 2 2 1 2 2 2 2 2 1 0 1 1 1 1 1 1 1 1 1 1 1 1 0 1 1 0 1 0 0 0 0 0 0 0 0 0 0
1 1 1 2 1 1 1 0 0 0 1 0 0 0 0 0 0 0 0 0 0 0 0 0 0 0 0 0 0 1 0 0 1 1 1 0 0 0 0 0 0 0 0
7 1 1 2 3 1 0 0 0 0 0 0 0 0 0 0 0 0 0 0 0 0 0 0 0 0 0 0 0 0 0 0 0 1 0 1 0 0 0 0 0 0 0
3 3 2 2 3 1 0 0 0 1 0 0 0 0 0 0 0 0 0 0 0 0 0 0 0 0 0 0 1 0 1 1 0 1 0 0 0 0 0 0 0 0 0
3 5 4 4 5 2 0 0 0 1 1 0 0 0 0 0 0 0 0 0 0 0 0 0 0 0 0 0 0 0 0 0 0 0 0 0 1 0 0 0 0 0 0
3 3 3 3 6 4 0 0 0 0 0 0 0 0 0 0 0 0 0 -0 -0 0 0 -0 -0 -0 -0 -0 -0 0 0 0 0 0 1 0 1 0 0 0 0 0 0
0 1 1 0 0 0 0 0 0 0 0 0 0 0 0 0 0 0 0 0 -0 -0 -0 -0 0 0 0 0 -0 0 0 0 0 0 0 0 1 0 0 0 0 0 0
Wind_Speed_500mb
49 46 41 36 32 33 30 29 27 25 24 22 20 20 17 17 19 16 15 29 23 22 18 20 20 19 18 16 16 16 13 16 21 22 23 25 30 33 33 30 28 29 31
62 51 49 43 37 33 33 29 27 25 23 20 21 21 21 19 19 19 17 23 30 29 23 20 20 19 15 15 17 14 16 18 19 23 25 27 28 35 37 36 33 32 34
68 74 58 52 46 40 37 36 34 31 27 23 26 25 23 22 21 22 22 19 24 30 17 14 15 12 15 14 18 21 16 21 22 24 24 27 29 33 37 39 39 37 36
80 77 66 64 62 51 45 37 35 31 26 25 24 24 23 22 25 26 24 24 21 21 14 12 12 8 11 13 21 19 26 23 28 29 26 25 26 27 33 38 41 42 41
83 86 78 47 53 44 51 38 34 36 28 31 31 29 27 30 28 25 23 29 24 26 22 20 15 6 12 10 8 12 19 25 31 37 36 32 30 30 30 33 39 44 44
80 83 84 80 66 57 52 44 44 44 38 34 31 28 31 32 29 32 27 27 23 30 29 23 22 28 19 18 17 19 21 29 34 38 43 43 38 38 34 34 34 40 44
75 81 91 84 84 83 59 55 58 57 52 50 39 34 40 40 36 34 30 29 27 31 31 25 17 18 18 28 28 31 43 45 46 43 46 39 37 50 44 39 36 38 39
80 84 83 81 83 79 67 71 67 67 63 52 49 36 38 37 36 35 33 33 30 28 36 30 21 18 25 25 38 45 45 50 49 60 47 42 42 46 47 43 39 38 40
89 91 87 91 88 83 88 89 78 74 65 56 65 43 29 44 41 26 30 39 30 30 26 35 37 46 48 38 45 46 50 52 46 54 51 43 42 46 47 45 43 41 39
91 89 86 88 96 97 93 84 79 78 67 56 43 54 59 45 26 28 30 37 40 38 39 38 37 48 40 40 58 59 51 51 54 53 47 46 46 47 48 46 47 44 41
81 88 80 80 102 104 89 83 82 82 77 65 59 48 62 62 56 51 39 42 61 60 64 75 68 87 55 57 51 50 45 48 53 48 44 43 51 47 49 48 47 45 43
80 80 83 84 89 110 105 86 88 78 67 59 65 55 58 54 55 56 48 52 61 75 84 91 94 87 64 69 49 40 44 46 43 45 45 53 48 50 46 51 50 45 43
81 83 85 96 94 103 103 85 78 67 64 58 68 55 52 50 50 41 38 52 48 64 81 78 63 61 68 47 40 48 35 38 41 41 42 48 47 51 48 51 50 45 44
80 82 94 108 101 104 98 90 67 63 57 58 59 65 46 43 42 57 61 47 48 58 59 85 64 54 56 42 47 36 35 41 46 45 43 50 47 50 50 50 47 47 47
111 92 102 94 102 83 79 74 77 50 53 44 44 47 44 39 39 42 43 44 41 42 64 76 44 44 42 44 39 42 48 36 42 50 48 48 48 52 50 45 48 47 47
90 99 106 84 85 54 130 63 46 49 53 41 40 40 43 38 39 42 47 54 56 61 54 60 52 40 35 40 45 45 46 50 54 39 47 49 48 51 50 44 44 43 47
107 86 56 61 45 38 56 61 53 42 42 34 41 36 43 43 43 36 40 51 51 48 52 51 47 49 54 61 63 51 56 47 48 42 40 42 43 42 40 38 37 42 49
66 27 31 32 34 37 44 46 41 35 30 25 26 34 34 33 36 36 38 47 37 32 48 47 49 45 50 54 57 52 50 47 36 43 34 33 37 36 35 33 37 41 44
37 36 42 42 42 38 31 25 23 23 20 23 25 24 22 22 25 23 26 34 33 30 36 44 42 44 54 52 45 51 51 39 39 46 32 35 36 36 35 34 36 35 33
27 24 32 25 25 25 26 29 29 28 28 25 23 20 20 20 22 25 31 33 37 37 39 44 48 50 48 48 51 44 40 37 44 42 36 39 36 36 36 35 33 31 28
22 32 27 28 29 29 28 29 30 30 28 25 18 13 14 17 27 32 31 31 36 38 35 42 47 48 48 39 43 38 34 38 44 40 36 40 28 30 36 33 29 28 26
45 30 40 45 43 37 39 38 33 28 25 22 19 16 16 19 17 17 25 32 42 50 55 47 44 47 50 39 40 44 42 39 44 42 36 39 32 26 23 25 20 18 22
33 37 40 38 41 40 44 48 40 29 28 26 24 21 16 15 24 21 25 35 38 37 42 47 53 58 57 52 48 51 48 45 45 47 31 26 28 25 25 26 29 24 22
32 37 38 41 37 42 36 45 33 42 34 29 27 24 26 27 23 26 32 33 34 35 36 42 45 47 46 42 45 51 49 46 52 48 39 23 28 24 22 26 25 20 22
27 39 48 48 51 49 59 54 51 55 39 33 29 27 28 28 29 33 35 40 39 40 37 40 49 60 59 57 59 64 60 49 61 56 40 33 30 25 22 25 25 20 18
35 28 45 60 66 58 62 63 62 50 42 33 33 31 34 34 31 37 46 50 41 41 41 41 44 42 45 55 54 55 62 57 54 40 38 35 30 27 14 25 22 21 17
Wind_Direction_500mb
207 214 212 207 222 212 232 216 226 238 246 249 246 249 240 244 248 254 258 281 288 286 288 294 303 300 287 284 292 305 315 299 280 278 276 273 258 253 257 259 261 260 260
210 210 208 212 212 216 216 224 225 233 256 247 253 240 242 248 260 261 262 276 292 295 284 289 297 296 288 284 281 291 310 307 299 282 274 277 269 254 254 256 260 261 260
213 218 215 210 208 213 211 221 217 228 233 245 241 239 246 254 257 268 271 270 281 289 281 270 271 277 279 275 276 277 309 310 304 293 277 272 276 262 255 258 260 262 262
219 222 212 217 216 204 226 221 230 229 229 236 243 243 251 256 255 259 266 264 268 247 233 211 240 255 271 263 253 278 280 306 293 291 282 270 267 272 258 257 260 263 263
227 226 223 223 220 217 216 224 225 235 228 230 237 243 249 253 257 261 255 259 268 216 203 241 211 259 352 325 288 293 310 300 301 287 284 273 265 267 264 262 262 264 263
234 225 227 222 225 226 229 223 225 227 226 237 242 250 248 249 256 266 256 252 246 225 216 211 256 273 300 318 355 351 346 335 320 303 287 277 272 265 263 260 265 269 265
230 231 222 220 231 236 238 239 244 241 244 238 230 249 245 254 265 259 260 243 236 236 227 271 280 228 287 303 306 319 320 312 307 311 289 276 284 270 261 261 262 271 269
226 227 227 215 227 227 227 231 235 242 242 236 237 235 248 262 236 266 253 242 228 221 232 262 253 290 301 279 294 304 304 306 304 297 295 262 283 263 256 259 261 268 270
227 230 231 217 222 222 232 229 229 235 236 240 221 215 246 236 242 244 256 227 238 233 237 254 278 292 299 298 304 303 303 308 294 295 287 252 269 266 257 257 259 262 269
229 233 232 226 218 227 230 235 232 236 246 224 226 229 226 239 222 233 243 238 235 235 243 274 281 305 297 282 296 302 301 283 286 285 277 259 275 272 260 255 257 259 265
233 229 229 224 219 219 228 221 229 239 236 230 216 227 227 235 240 240 242 243 249 247 254 254 267 276 289 299 302 292 284 276 283 279 261 255 274 266 261 258 256 256 262
233 234 223 226 223 226 221 231 227 228 224 238 217 219 232 230 240 240 242 250 255 261 263 278 278 275 278 299 300 281 284 282 285 277 262 267 264 262 262 260 258 256 262
227 231 226 220 222 224 223 212 212 216 223 211 222 219 232 233 235 243 248 252 263 271 267 279 278 270 289 295 278 277 278 282 279 278 273 264 265 266 264 260 256 259 263
222 228 230 218 219 220 210 205 205 213 217 220 224 235 229 242 241 252 256 258 264 266 276 276 284 287 270 274 288 284 288 298 281 269 266 269 267 262 261 256 252 255 258
228 224 226 219 215 210 217 217 192 204 217 219 228 238 240 240 243 251 256 260 257 269 274 278 283 287 257 277 307 302 287 308 301 270 267 266 264 264 257 253 251 252 257
245 231 219 217 214 220 233 250 213 204 216 207 221 231 238 234 238 246 248 257 255 255 260 268 276 274 250 264 282 299 299 287 307 285 263 258 258 261 254 250 248 255 261
236 242 227 214 217 230 181 217 222 207 210 208 218 221 236 237 236 245 247 255 258 255 255 264 260 256 274 278 292 275 282 282 287 302 266 256 256 253 245 243 252 263 270
238 251 225 234 189 178 193 198 199 206 204 209 229 230 234 238 245 248 249 263 276 254 253 261 266 262 268 279 284 287 275 275 284 309 268 261 250 242 241 249 264 272 271
214 193 184 185 175 180 177 191 198 193 182 199 209 215 218 226 240 243 250 255 272 275 275 278 269 273 274 275 278 284 289 270 286 312 274 262 243 241 248 261 272 270 261
201 194 206 174 169 162 164 176 174 170 177 183 190 194 210 226 238 246 254 258 267 274 273 271 272 268 270 271 272 261 264 271 296 294 283 265 251 247 254 263 269 261 253
191 201 179 169 185 179 177 171 166 166 164 167 177 191 220 220 229 239 245 248 248 253 266 270 272 271 268 274 277 259 260 276 288 279 244 259 275 264 254 258 259 254 244
173 225 184 181 176 182 189 175 166 168 170 173 182 204 217 243 265 281 289 282 275 270 267 264 270 279 282 290 288 283 281 281 280 282 244 238 249 255 247 279 253 248 237
198 183 198 185 181 182 203 185 172 178 191 194 206 215 238 249 262 285 287 294 299 294 286 283 275 270 269 269 280 279 276 273 279 275 239 236 232 231 220 236 257 255 234
239 219 203 189 187 193 203 201 187 188 198 206 217 230 249 264 284 296 296 292 288 281 277 278 276 278 279 276 271 272 269 274 279 271 243 233 225 221 207 238 257 256 239
267 230 220 210 200 204 213 212 206 203 208 214 230 242 254 265 271 292 303 308 300 295 287 269 263 265 268 272 274 272 268 255 261 260 243 239 230 211 205 238 256 259 237
257 264 231 221 216 217 215 218 215 204 211 220 240 250 268 286 302 301 302 304 298 299 298 287 269 259 275 273 275 265 263 247 251 249 245 236 225 199 201 228 247 269 249
Wind_Speed_850mb
49 46 41 36 32 33 30 29 27 25 24 22 20 20 17 17 19 16 15 29 23 22 18 20 20 19 18 16 16 16 13 16 21 22 23 25 30 33 33 30 28 29 31
62 51 49 43 37 33 33 29 27 25 23 20 21 21 21 19 19 19 17 23 30 29 23 20 20 19 15 15 17 14 16 18 19 23 25 27 28 35 37 36 33 32 34
68 74 58 52 46 40 37 36 34 31 27 23 26 25 23 22 21 22 22 19 24 30 17 14 15 12 15 14 18 21 16 21 22 24 24 27 29 33 37 39 39 37 36
80 77 66 64 62 51 45 37 35 31 26 25 24 24 23 22 25 26 24 24 21 21 14 12 12 8 11 13 21 19 26 23 28 29 26 25 26 27 33 38 41 42 41
83 86 78 47 53 44 51 38 34 36 28 31 31 29 27 30 28 25 23 29 24 26 22 20 15 6 12 10 8 12 19 25 31 37 36 32 30 30 30 33 39 44 44
80 83 84 80 66 57 52 44 44 44 38 34 31 28 31 32 29 32 27 27 23 30 29 23 22 28 19 18 17 19 21 29 34 38 43 43 38 38 34 34 34 40 44
75 81 91 84 84 83 59 55 58 57 52 50 39 34 40 40 36 34 30 29 27 31 31 25 17 18 18 28 28 31 43 45 46 43 46 39 37 50 44 39 36 38 39
80 84 83 81 83 79 67 71 67 67 63 52 49 36 38 37 36 35 33 33 30 28 36 30 21 18 25 25 38 45 45 50 49 60 47 42 42 46 47 43 39 38 40
89 91 87 91 88 83 88 89 78 74 65 56 65 43 29 44 41 26 30 39 30 30 26 35 37 46 48 38 45 46 50 52 46 54 51 43 42 46 47 45 43 41 39
91 89 86 88 96 97 93 84 79 78 67 56 43 54 59 45 26 28 30 37 40 38 39 38 37 48 40 40 58 59 51 51 54 53 47 46 46 47 48 46 47 44 41
81 88 80 80 102 104 89 83 82 82 77 65 59 48 62 62 56 51 39 42 61 60 64 75 68 87 55 57 51 50 45 48 53 48 44 43 51 47 49 48 47 45 43
80 80 83 84 89 110 105 86 88 78 67 59 65 55 58 54 55 56 48 52 61 75 84 91 94 87 64 69 49 40 44 46 43 45 45 53 48 50 46 51 50 45 43
81 83 85 96 94 103 103 85 78 67 64 58 68 55 52 50 50 41 38 52 48 64 81 78 63 61 68 47 40 48 35 38 41 41 42 48 47 51 48 51 50 45 44
80 82 94 108 101 104 98 90 67 63 57 58 59 65 46 43 42 57 61 47 48 58 59 85 64 54 56 42 47 36 35 41 46 45 43 50 47 50 50 50 47 47 47
111 92 102 94 102 83 79 74 77 50 53 44 44 47 44 39 39 42 43 44 41 42 64 76 44 44 42 44 39 42 48 36 42 50 48 48 48 52 50 45 48 47 47
90 99 106 84 85 54 130 63 46 49 53 41 40 40 43 38 39 42 47 54 56 61 54 60 52 40 35 40 45 45 46 50 54 39 47 49 48 51 50 44 44 43 47
107 86 56 61 45 38 56 61 53 42 42 34 41 36 43 43 43 36 40 51 51 48 52 51 47 49 54 61 63 51 56 47 48 42 40 42 43 42 40 38 37 42 49
66 27 31 32 34 37 44 46 41 35 30 25 26 34 34 33 36 36 38 47 37 32 48 47 49 45 50 54 57 52 50 47 36 43 34 33 37 36 35 33 37 41 44
37 36 42 42 42 38 31 25 23 23 20 23 25 24 22 22 25 23 26 34 33 30 36 44 42 44 54 52 45 51 51 39 39 46 32 35 36 36 35 34 36 35 33
27 24 32 25 25 25 26 29 29 28 28 25 23 20 20 20 22 25 31 33 37 37 39 44 48 50 48 48 51 44 40 37 44 42 36 39 36 36 36 35 33 31 28
22 32 27 28 29 29 28 29 30 30 28 25 18 13 14 17 27 32 31 31 36 38 35 42 47 48 48 39 43 38 34 38 44 40 36 40 28 30 36 33 29 28 26
45 30 40 45 43 37 39 38 33 28 25 22 19 16 16 19 17 17 25 32 42 50 55 47 44 47 50 39 40 44 42 39 44 42 36 39 32 26 23 25 20 18 22
33 37 40 38 41 40 44 48 40 29 28 26 24 21 16 15 24 21 25 35 38 37 42 47 53 58 57 52 48 51 48 45 45 47 31 26 28 25 25 26 29 24 22
32 37 38 41 37 42 36 45 33 42 34 29 27 24 26 27 23 26 32 33 34 35 36 42 45 47 46 42 45 51 49 46 52 48 39 23 28 24 22 26 25 20 22
27 39 48 48 51 49 59 54 51 55 39 33 29 27 28 28 29 33 35 40 39 40 37 40 49 60 59 57 59 64 60 49 61 56 40 33 30 25 22 25 25 20 18
35 28 45 60 66 58 62 63 62 50 42 33 33 31 34 34 31 37 46 50 41 41 41 41 44 42 45 55 54 55 62 57 54 40 38 35 30 27 14 25 22 21 17
Wind_Direction_850mb
207 214 212 207 222 212 232 216 226 238 246 249 246 249 240 244 248 254 258 281 288 286 288 294 303 300 287 284 292 305 315 299 280 278 276 273 258 253 257 259 261 260 260
210 210 208 212 212 216 216 224 225 233 256 247 253 240 242 248 260 261 262 276 292 295 284 289 297 296 288 284 281 291 310 307 299 282 274 277 269 254 254 256 260 261 260
213 218 215 210 208 213 211 221 217 228 233 245 241 239 246 254 257 268 271 270 281 289 281 270 271 277 279 275 276 277 309 310 304 293 277 272 276 262 255 258 260 262 262
219 222 212 217 216 204 226 221 230 229 229 236 243 243 251 256 255 259 266 264 268 247 233 211 240 255 271 263 253 278 280 306 293 291 282 270 267 272 258 257 260 263 263
227 226 223 223 220 217 216 224 225 235 228 230 237 243 249 253 257 261 255 259 268 216 203 241 211 259 352 325 288 293 310 300 301 287 284 273 265 267 264 262 262 264 263
234 225 227 222 225 226 229 223 225 227 226 237 242 250 248 249 256 266 256 252 246 225 216 211 256 273 300 318 355 351 346 335 320 303 287 277 272 265 263 260 265 269 265
230 231 222 220 231 236 238 239 244 241 244 238 230 249 245 254 265 259 260 243 236 236 227 271 280 228 287 303 306 319 320 312 307 311 289 276 284 270 261 261 262 271 269
226 227 227 215 227 227 227 231 235 242 242 236 237 235 248 262 236 266 253 242 228 221 232 262 253 290 301 279 294 304 304 306 304 297 295 262 283 263 256 259 261 268 270
227 230 231 217 222 222 232 229 229 235 236 240 221 215 246 236 242 244 256 227 238 233 237 254 278 292 299 298 304 303 303 308 294 295 287 252 269 266 257 257 259 262 269
229 233 232 226 218 227 230 235 232 236 246 224 226 229 226 239 222 233 243 238 235 235 243 274 281 305 297 282 296 302 301 283 286 285 277 259 275 272 260 255 257 259 265
233 229 229 224 219 219 228 221 229 239 236 230 216 227 227 235 240 240 242 243 249 247 254 254 267 276 289 299 302 292 284 276 283 279 261 255 274 266 261 258 256 256 262
233 234 223 226 223 226 221 231 227 228 224 238 217 219 232 230 240 240 242 250 255 261 263 278 278 275 278 299 300 281 284 282 285 277 262 267 264 262 262 260 258 256 262
227 231 226 220 222 224 223 212 212 216 223 211 222 219 232 233 235 243 248 252 263 271 267 279 278 270 289 295 278 277 278 282 279 278 273 264 265 266 264 260 256 259 263
222 228 230 218 219 220 210 205 205 213 217 220 224 235 229 242 241 252 256 258 264 266 276 276 284 287 270 274 288 284 288 298 281 269 266 269 267 262 261 256 252 255 258
228 224 226 219 215 210 217 217 192 204 217 219 228 238 240 240 243 251 256 260 257 269 274 278 283 287 257 277 307 302 287 308 301 270 267 266 264 264 257 253 251 252 257
245 231 219 217 214 220 233 250 213 204 216 207 221 231 238 234 238 246 248 257 255 255 260 268 276 274 250 264 282 299 299 287 307 285 263 258 258 261 254 250 248 255 261
236 242 227 214 217 230 181 217 222 207 210 208 218 221 236 237 236 245 247 255 258 255 255 264 260 256 274 278 292 275 282 282 287 302 266 256 256 253 245 243 252 263 270
238 251 225 234 189 178 193 198 199 206 204 209 229 230 234 238 245 248 249 263 276 254 253 261 266 262 268 279 284 287 275 275 284 309 268 261 250 242 241 249 264 272 271
214 193 184 185 175 180 177 191 198 193 182 199 209 215 218 226 240 243 250 255 272 275 275 278 269 273 274 275 278 284 289 270 286 312 274 262 243 241 248 261 272 270 261
201 194 206 174 169 162 164 176 174 170 177 183 190 194 210 226 238 246 254 258 267 274 273 271 272 268 270 271 272 261 264 271 296 294 283 265 251 247 254 263 269 261 253
191 201 179 169 185 179 177 171 166 166 164 167 177 191 220 220 229 239 245 248 248 253 266 270 272 271 268 274 277 259 260 276 288 279 244 259 275 264 254 258 259 254 244
173 225 184 181 176 182 189 175 166 168 170 173 182 204 217 243 265 281 289 282 275 270 267 264 270 279 282 290 288 283 281 281 280 282 244 238 249 255 247 279 253 248 237
198 183 198 185 181 182 203 185 172 178 191 194 206 215 238 249 262 285 287 294 299 294 286 283 275 270 269 269 280 279 276 273 279 275 239 236 232 231 220 236 257 255 234
239 219 203 189 187 193 203 201 187 188 198 206 217 230 249 264 284 296 296 292 288 281 277 278 276 278 279 276 271 272 269 274 279 271 243 233 225 221 207 238 257 256 239
267 230 220 210 200 204 213 212 206 203 208 214 230 242 254 265 271 292 303 308 300 295 287 269 263 265 268 272 274 272 268 255 261 260 243 239 230 211 205 238 256 259 237
257 264 231 221 216 217 215 218 215 204 211 220 240 250 268 286 302 301 302 304 298 299 298 287 269 259 275 273 275 265 263 247 251 249 245 236 225 199 201 228 247 269 249